Regional Weather Roundup
Issued by NWS

Home | Current Version | Previous Version | Graphics & Text | Print | Product List | Glossary Off
Versions: 1 2 3 4 5 6 7 8 9 10 11 12 13 14 15 16 17 18 19 20 21 22 23 24 25 26 27 28 29 30 31 32 33 34 35 36 37 38 39 40 41 42 43 44 45 46 47 48 49 50

982
ASUS43 KMPX 171710
RWRMN
WEATHER ROUNDUP FOR MINNESOTA
NATIONAL WEATHER SERVICE TWIN CITIES/CHANHASSEN MN
1100 AM CST SAT FEB 17 2018


NOTE: "FAIR" INDICATES FEW OR NO CLOUDS BELOW 12,000 FEET WITH NO
SIGNIFICANT WEATHER AND/OR OBSTRUCTIONS TO VISIBILITY. N/A MEANS
CURRENT SKY AND/OR WEATHER CONDITIONS ARE NOT AVAILABLE.

MNZ060>063-068>070-171800-
   Twin Cities Metro

CITY           SKY/WX    TMP DP  RH WIND       PRES   REMARKS
TWIN CITIES    CLOUDY    28  24  85 W9        29.90R WCI  19
ST PAUL        CLOUDY    27  23  85 W10       29.91R WCI  17
CRYSTAL        FAIR      29  22  75 W9        29.88R WCI  20
BLAINE         PTSUNNY   30  25  80 W10       29.88R WCI  21
LAKEVILLE      CLOUDY    27  23  86 W12       29.89S WCI  16
EDEN PRAIRIE   CLOUDY    28  23  81 SW9       29.89R WCI  19
SOUTH ST PAUL  FAIR      29  23  79 W8        29.90R WCI  21
LAKE ELMO      CLOUDY    28  25  86 W10       29.90R WCI  19
$$
MNZ001>005-007-008-013>017-022>024-027-028-171800-
   Northwest Minnesota

CITY           SKY/WX    TMP DP  RH WIND       PRES   REMARKS
BEMIDJI        FLURRIES  19  12  73 W10       29.81R WCI   8
HALLOCK        FAIR      18   9  68 NW14      29.87R WCI   4
WARROAD        FAIR      14   5  67 W8        29.80R WCI   3
THIEF RVR FALL FLURRIES  17  10  74 NW14      29.86R WCI   3
CROOKSTON      FAIR      18  12  79 NW17      29.89R WCI   2
FOSSTON        FAIR      18  10  73 W14       29.85R WCI   4
DETROIT LAKES  PTSUNNY   21  14  73 NW12G18   29.88R WCI   9
MOORHEAD       FAIR      21  12  68 NW16      29.93R WCI   7
PARK RAPIDS    FAIR      22  14  71 NW13      29.82R WCI  10
MAHNOMEN       PTSUNNY   18  13  79 NW14      29.86R WCI   4
$$
MNZ006-009>011-018-025>026-171800-
   North Central Minnesota

CITY           SKY/WX    TMP DP  RH WIND       PRES   REMARKS
BAUDETTE       FAIR      15   5  64 NW13      29.76R WCI   1
FLAG ISLAND    FAIR      12   1  62 W13       29.76R WCI  -3
INTL FALLS     FAIR      18   7  62 W10       29.75R WCI   6
WASKISH        PTSUNNY   16  10  79 W9        29.80R WCI   4
BIG FORK       FLURRIES  21  10  63 NW8       29.77R WCI  12
LONGVILLE      FAIR      25  12  58 NW5       29.81R WCI  19
GRAND RAPIDS   PTSUNNY   23  12  62 W12       29.80R WCI  12
CRANE LAKE     FAIR      19   7  58 W9        29.75R WCI   9
ORR            FAIR      19   7  58 W9        29.71S WCI   9
COOK           PTSUNNY   19  10  68 W10G16    29.75R WCI   8
WALKER         CLOUDY    22  11  64 W15G25    29.81R WCI   9
$$
MNZ012-019>021-037-171800-
   Northeast Minnesota

CITY           SKY/WX    TMP DP  RH WIND       PRES   REMARKS
DULUTH         FAIR      24  15  68 W16       29.76S WCI  11
ELY            FAIR      19  10  68 W15       29.71S WCI   5
HIBBING        FAIR      22  10  60 NW12G20   29.75R WCI  10
EVELETH        FAIR     N/A N/A N/A W15       29.76R
DULUTH HARBOR  FAIR      27  18  69 W14       29.82S WCI  15
TWO HARBORS    FAIR      28  18  64 W14       29.74S WCI  17
GRAND MARAIS     N/A     29  18  63 W14       29.73F WCI  18
G MARAIS ARPRT FAIR      23   9  54 SW9       29.65S WCI  13
$$
MNZ029>031-032-039>041-046>048-054>057-064-171800-
   West Central Minnesota

CITY           SKY/WX    TMP DP  RH WIND       PRES   REMARKS
FERGUS FALLS   FAIR      25  16  68 NW18      29.91R WCI  11
WHEATON        PTSUNNY   30  16  55 W13G18    29.95R WCI  20
MORRIS         SUNNY     30  18  59 W15       29.91R WCI  19
ALEXANDRIA     FAIR      28  16  60 W15       29.88R WCI  16
ELBOW LAKE     FAIR      27  15  62 NW15      29.90R WCI  15
WADENA         FAIR      21  16  79 NW14      29.86R WCI   8
GLENWOOD       FAIR      28  18  64 NW17      29.88S WCI  16
APPLETON       CLOUDY    32  16  51 NW13      29.93R WCI  22
BENSON         CLOUDY    34  16  47 N15       29.93R WCI  24
ORTONVILLE     SUNNY     30  18  59 NW13      29.94R WCI  20
MADISON        SUNNY     34  19  55 NW10      29.94R WCI  26
WILLMAR        FAIR      30  19  64 NW12      29.91S WCI  21
$$
MNZ033>034-036-042>043-049>051-058-059-171800-
   Central Minnesota

CITY           SKY/WX    TMP DP  RH WIND       PRES   REMARKS
ST CLOUD       FAIR      31  18  58 NW13      29.87R WCI  21
SAUK CENTRE    FAIR      28  16  60 W13       29.89R WCI  17
PAYNESVILLE    FAIR      32  19  58 NW9       29.89R WCI  24
AITKIN         FAIR      23  14  68 SW8       29.82R WCI  14
PINE RIVER     FAIR      25  14  63 W9        29.86R WCI  15
BRAINERD       FAIR      25  14  63 W13       29.85R WCI  14
STAPLES        FAIR      25  16  68 W14       29.86R WCI  13
LONG PRAIRIE   FAIR      28  16  59 SW12G17   29.87R WCI  18
LITTLE FALLS     N/A    N/A N/A N/A W12         N/A
LITCHFIELD     FAIR      34  21  60 NW9       29.89R WCI  26
BUFFALO        FAIR      30  20  65 W8        29.89S WCI  23
MAPLE LAKE     FAIR      32  21  65 NW7       29.89R WCI  25
HUTCHINSON     FAIR      33  22  64 W8        29.89R WCI  26
$$
MNZ037-044-045-052-053-171800-
   East Central Minnesota

CITY           SKY/WX    TMP DP  RH WIND       PRES   REMARKS
PRINCETON      FAIR      30  19  64 W5        29.87S WCI  25
MORA           FAIR      30  18  59 W3        29.87R
CAMBRIDGE        N/A     30  18  59 W5        29.87S WCI  25
RUSH CITY      FAIR      29  18  65 W7        29.86S WCI  21
MOOSE LAKE     FAIR      28  16  59 W8        29.81S WCI  20
HINCKLEY       FAIR      28  19  69 W9        29.85R WCI  20
CLOQUET        FAIR      25  12  58 W15       29.79R WCI  12
MCGREGOR       FAIR      27  16  63 W8        29.82R WCI  18
$$
MNZ071>073-080-081-089-090-097-098-171800-
   Southwest Minnesota

CITY           SKY/WX    TMP DP  RH WIND       PRES   REMARKS
MONTEVIDEO     MOSUNNY   36  21  55 N9        29.92R
GRANITE FALLS  MOSUNNY   33  21  61 NW13      29.94R WCI  24
CANBY          MOSUNNY   32  21  63 NW12      29.94R WCI  23
MARSHALL       MOSUNNY   32  22  66 NW16      29.92R WCI  21
REDWOOD FALLS  MOSUNNY   32  21  64 NW13      29.90R WCI  22
OLIVIA         CLOUDY    32  21  64 NW15      29.89S WCI  22
PIPESTONE      MOSUNNY   28  25  86 NW14      29.90R WCI  17
WINDOM         MOSUNNY   28  12  50 W13       29.90R WCI  18
WORTHINGTON    LGT SNOW  28  25  86 W10       29.92R WCI  19
JACKSON        PTSUNNY   27  23  86 W13       29.91R WCI  16
TRACY          MOSUNNY   33  28  81 NW10      29.90R WCI  25
SLAYTON        MOSUNNY   28  25  89 W15       29.90R WCI  16
$$
MNZ065>067-074>077-082>085-091>093-171800-
   South Central Minnesota

CITY           SKY/WX    TMP DP  RH WIND       PRES   REMARKS
MANKATO        CLOUDY    27  22  81 SW10      29.91R WCI  17
NEW ULM        MOSUNNY   27  21  80 W9        29.90R WCI  17
ST JAMES       CLOUDY    28  23  80 W8        29.92R WCI  20
FAIRMONT       CLOUDY    27  22  81 W13       29.91S WCI  16
GLENCOE        FAIR      31  26  81 W8        29.89R WCI  23
FARIBAULT      CLOUDY    27  21  80 SW10      29.91R WCI  17
OWATONNA       MIX PCPN  25  21  86 SW12      29.90R WCI  14
WASECA         CLOUDY    25  21  86 SW14      29.92R WCI  13
ALBERT LEA     LGT SNOW  25  19  80 SW9       29.90R WCI  15
$$
MNZ078>079-086>088-094>096-171800-
   Southeast Minnesota

CITY           SKY/WX    TMP DP  RH WIND       PRES   REMARKS
ROCHESTER      SNOW      22  20  92 SW16      29.89R VSB 1/2 WCI   8
RED WING       LGT SNOW  27  19  74 W8        29.90S WCI  18
STANTON        CLOUDY    28  22  80 SW10      29.89R WCI  18
DODGE CENTER   LGT SNOW  23  19  86 SW14      29.89R WCI  11
WINONA         MIX PCPN  28  23  80 CALM      29.91F
AUSTIN         LGT SNOW  23  19  86 SW10      29.90R VSB 1   WCI  12
PRESTON        LGT SNOW  22  19  89 S9        29.90R VSB 3/4 WCI  12
$$
ABBREVIATIONS USED IN REMARKS
   TC - TEMPERATURES IN CELSIUS
  WCI - WIND CHILL INDEX
   HX - HEAT INDEX
  VSB - VISIBILITY
$$




USA.gov is the U.S. government's official web portal to all federal, state and local government web resources and services.